Aérodrome :
LOGIN :

S'inscrire | Disclaimer

   EN    FR    IT 

 










Légende :    VFR   VFR Marginal   IFR   IFR Intensif   IFR Très Intensif
Visi : 
Plafond : 
>= 8 km
>= 3000ft
5 à 8 km
1000 à 3000 ft
1500m à 5 km
500 à 1000 ft
800 à 1500m
200 à 500 ft
< 800m
< 200 ft
Symboles :   Orages  Brouillard  Fortes neiges  Fortes précipitations  Vent > 20 kt
SIGMETs :   Divers  Orages  Givrage  Turbulence  Onde Orograph.  Cendres Volcan.







- Altitude de l'aérodrome : 44 ft
- Code IATA : SOU
- Voir les cartes d'approche


EGHI - Southampton

DERNIER METAR :
  • 221550Z 12007KT 080V160 CAVOK 18/07 Q1002

METARs EXPIRÉS :
  • 221520Z 12006KT 070V150 CAVOK 18/06 Q1002
  • 221450Z 12007KT 090V150 9999 FEW048 19/05 Q1003
  • 221420Z 12006KT 080V160 CAVOK 20/07 Q1003
  • 221350Z 13006KT 080V160 CAVOK 20/06 Q1003
  • 221320Z 13006KT 080V180 CAVOK 20/06 Q1003
  • 221250Z 11008KT 070V170 CAVOK 20/06 Q1004

TAF TAF EGHI
Valide du 22 à 15h jusqu'au 22 à 22h UTC


221359Z 2215/2222 12006KT CAVOK
PROB40 2218/2222 8000
ATIS : +44 23 8062 7103
Pas de NOTAMs connus pour ce terrain.



MET'MAP, la Météo Aéronautique d'un coup d'oeil ! - Copyright ORBIFLY Décembre 2007 - Disclaimer

ORBIFLY MET'MAP TEAM :

Programmation & Développement : Alexandra Zaïnal
Conception & Développement : Baudouin d'Aumeries
Co-Programmation & Développement : Marc-Olivier Méhu
Soutien technique & logistique : Manuel Goepfert

Contact : metmap@orbifly.com




SOURCES & CREDITS :

   NOAA